�������l�o���
Date,Time,MP-1(��Sv/h),MP-2(��Sv/h),MP-3(��Sv/h),MP-4(��Sv/h),MP-5(��Sv/h),MP-6(��Sv/h),MP-7(��Sv/h),MP-8(��Sv/h),����,����(m/s),���J
2019/10/03,00:00,0.751,1.072,0.737,1.309,0.968,0.425,0.740,0.698,��,6.2,��
2019/10/03,00:10,0.752,1.073,0.740,1.312,0.969,0.426,0.741,0.696,��,5.1,��
2019/10/03,00:20,0.754,1.074,0.739,1.311,0.969,0.427,0.741,0.697,��,4.7,��
2019/10/03,00:30,0.752,1.073,0.739,1.313,0.967,0.427,0.741,0.699,��,4.8,��
2019/10/03,00:40,0.753,1.069,0.738,1.312,0.970,0.425,0.741,0.697,��,4.3,��
2019/10/03,00:50,0.751,1.071,0.737,1.311,0.969,0.424,0.741,0.698,��쐼,4.2,��
2019/10/03,01:00,0.753,1.072,0.738,1.313,0.969,0.425,0.740,0.698,��쐼,3.7,��
2019/10/03,01:10,0.750,1.072,0.737,1.311,0.968,0.425,0.740,0.698,��쐼,3.7,��
2019/10/03,01:20,0.752,1.071,0.740,1.311,0.966,0.423,0.739,0.697,��쐼,4.1,��
2019/10/03,01:30,0.751,1.070,0.738,1.311,0.971,0.425,0.739,0.697,��쐼,3.5,��
2019/10/03,01:40,0.750,1.070,0.739,1.309,0.966,0.425,0.740,0.698,��,3.5,��
2019/10/03,01:50,0.750,1.069,0.738,1.309,0.968,0.425,0.741,0.698,��쐼,3.7,��
2019/10/03,02:00,0.751,1.070,0.738,1.312,0.966,0.426,0.739,0.697,��,3.3,��
2019/10/03,02:10,0.752,1.070,0.739,1.312,0.968,0.425,0.740,0.696,��,2.0,��
2019/10/03,02:20,0.752,1.072,0.737,1.310,0.967,0.426,0.740,0.697,��,2.2,��
2019/10/03,02:30,0.753,1.071,0.737,1.312,0.966,0.425,0.741,0.698,��,2.0,��
2019/10/03,02:40,0.752,1.072,0.739,1.309,0.967,0.424,0.740,0.697,��,1.9,��
2019/10/03,02:50,0.751,1.072,0.736,1.309,0.967,0.424,0.739,0.699,��,1.5,��
2019/10/03,03:00,0.751,1.071,0.738,1.312,0.968,0.425,0.740,0.698,��쐼,1.7,��
2019/10/03,03:10,0.752,1.071,0.738,1.310,0.968,0.425,0.740,0.697,��쐼,1.5,��
2019/10/03,03:20,0.751,1.073,0.737,1.314,0.968,0.425,0.741,0.697,��,1.5,��
2019/10/03,03:30,0.752,1.071,0.737,1.310,0.966,0.425,0.740,0.699,��,1.1,��
2019/10/03,03:40,0.752,1.068,0.739,1.312,0.969,0.425,0.738,0.698,��쐼,0.8,��
2019/10/03,03:50,0.750,1.069,0.739,1.310,0.967,0.423,0.740,0.699,��,0.8,��
2019/10/03,04:00,0.752,1.070,0.738,1.312,0.965,0.425,0.740,0.696,���쐼,1.2,��
2019/10/03,04:10,0.752,1.071,0.737,1.312,0.966,0.425,0.740,0.697,��,1.1,��
2019/10/03,04:20,0.749,1.071,0.740,1.311,0.967,0.424,0.741,0.699,��,1.2,��
2019/10/03,04:30,0.750,1.071,0.737,1.310,0.966,0.423,0.741,0.696,���쐼,0.9,��
2019/10/03,04:40,0.751,1.069,0.736,1.310,0.966,0.424,0.739,0.698,-,CALM,��
2019/10/03,04:50,0.752,1.068,0.736,1.310,0.965,0.423,0.739,0.698,��,1.4,��
2019/10/03,05:00,0.751,1.070,0.737,1.310,0.965,0.424,0.740,0.697,��쐼,1.4,��
2019/10/03,05:10,0.749,1.069,0.737,1.310,0.965,0.425,0.740,0.698,��,1.7,��
2019/10/03,05:20,0.749,1.071,0.737,1.311,0.965,0.425,0.740,0.697,��,1.1,��
2019/10/03,05:30,0.749,1.070,0.738,1.312,0.965,0.424,0.739,0.697,�쓌,1.7,��
2019/10/03,05:40,0.751,1.070,0.738,1.310,0.965,0.424,0.740,0.698,��쓌,0.6,��
2019/10/03,05:50,0.749,1.070,0.739,1.309,0.966,0.424,0.737,0.698,��쐼,0.9,��
2019/10/03,06:00,0.748,1.069,0.737,1.310,0.966,0.422,0.739,0.696,��,1.2,��
2019/10/03,06:10,0.750,1.069,0.736,1.309,0.966,0.424,0.739,0.698,��,1.5,��
2019/10/03,06:20,0.750,1.069,0.738,1.310,0.967,0.423,0.740,0.698,��,2.0,��
2019/10/03,06:30,0.751,1.069,0.737,1.314,0.967,0.424,0.739,0.698,��쐼,2.2,��
2019/10/03,06:40,0.750,1.070,0.737,1.311,0.964,0.425,0.739,0.699,�쐼,2.0,��
2019/10/03,06:50,0.750,1.067,0.737,1.311,0.966,0.423,0.739,0.697,��쐼,2.5,��
2019/10/03,07:00,0.749,1.070,0.737,1.311,0.966,0.424,0.740,0.697,��,2.5,��
2019/10/03,07:10,0.750,1.069,0.737,1.308,0.965,0.424,0.740,0.699,��쓌,2.3,��
2019/10/03,07:20,0.751,1.069,0.736,1.307,0.965,0.424,0.741,0.699,��,2.5,��
2019/10/03,07:30,0.751,1.071,0.737,1.310,0.965,0.423,0.740,0.698,��쐼,1.5,��
2019/10/03,07:40,0.753,1.071,0.737,1.308,0.968,0.425,0.737,0.699,��쐼,2.5,��
2019/10/03,07:50,0.750,1.069,0.738,1.311,0.965,0.425,0.740,0.698,��쓌,2.6,��
2019/10/03,08:00,0.751,1.070,0.738,1.312,0.966,0.423,0.739,0.699,��쓌,2.6,��
2019/10/03,08:10,0.751,1.069,0.738,1.312,0.966,0.423,0.738,0.698,�쓌,2.9,��
2019/10/03,08:20,0.752,1.065,0.738,1.312,0.966,0.423,0.738,0.698,�쓌,2.0,��
2019/10/03,08:30,0.750,1.061,0.736,1.312,0.966,0.420,0.737,0.696,��쓌,3.6,��
2019/10/03,08:40,0.750,1.062,0.735,1.310,0.963,0.420,0.737,0.697,��,2.8,��
2019/10/03,08:50,0.749,1.064,0.738,1.309,0.964,0.420,0.738,0.697,��쓌,4.1,��
2019/10/03,09:00,0.751,1.064,0.737,1.309,0.964,0.420,0.738,0.698,��,5.0,��
2019/10/03,09:10,0.750,1.063,0.735,1.310,0.964,0.420,0.738,0.696,��쓌,7.5,��
2019/10/03,09:20,0.751,1.060,0.734,1.310,0.964,0.421,0.738,0.696,��쓌,7.2,��
2019/10/03,09:30,0.749,1.063,0.734,1.309,0.963,0.419,0.741,0.695,��쓌,7.7,��
2019/10/03,09:40,0.751,1.061,0.734,1.308,0.965,0.419,0.737,0.694,��쓌,8.3,��
2019/10/03,09:50,0.750,1.059,0.733,1.309,0.962,0.422,0.740,0.696,��쓌,6.5,��
2019/10/03,10:00,0.750,1.060,0.733,1.310,0.964,0.421,0.738,0.696,��쓌,9.5,��
2019/10/03,10:10,0.751,1.062,0.735,1.311,0.965,0.423,0.738,0.696,��쓌,7.7,��
2019/10/03,10:20,0.750,1.068,0.736,1.311,0.963,0.422,0.738,0.697,��쓌,7.5,��
2019/10/03,10:30,0.752,1.064,0.736,1.309,0.965,0.423,0.739,0.696,��쓌,8.2,��
2019/10/03,10:40,0.752,1.064,0.730,1.313,0.966,0.423,0.739,0.697,��쓌,8.2,��
2019/10/03,10:50,0.751,1.065,0.732,1.311,0.966,0.424,0.740,0.696,��쓌,9.2,��
2019/10/03,11:00,0.748,1.066,0.733,1.313,0.965,0.424,0.740,0.697,��쓌,9.4,��
2019/10/03,11:10,0.750,1.064,0.733,1.311,0.964,0.424,0.739,0.695,��쓌,8.7,��
2019/10/03,11:20,0.753,1.068,0.735,1.311,0.964,0.423,0.740,0.696,��쓌,8.6,��
2019/10/03,11:30,0.750,1.067,0.737,1.312,0.966,0.424,0.739,0.695,��쓌,8.4,��
2019/10/03,11:40,0.752,1.068,0.734,1.312,0.965,0.424,0.739,0.697,��쓌,6.9,��
2019/10/03,11:50,0.753,1.071,0.734,1.309,0.965,0.423,0.738,0.695,��쓌,7.8,��
2019/10/03,12:00,0.753,1.073,0.734,1.311,0.967,0.426,0.738,0.695,��쓌,7.1,��
2019/10/03,12:10,0.753,1.071,0.736,1.313,0.968,0.425,0.740,0.694,��쓌,6.0,��
2019/10/03,12:20,0.750,1.074,0.736,1.313,0.968,0.424,0.740,0.695,��쓌,7.2,��
2019/10/03,12:30,0.753,1.073,0.737,1.310,0.966,0.426,0.739,0.695,��쓌,8.1,��
2019/10/03,12:40,0.753,1.075,0.737,1.313,0.968,0.425,0.740,0.697,��쓌,8.2,��
2019/10/03,12:50,0.751,1.074,0.738,1.312,0.966,0.424,0.740,0.696,��쓌,8.7,��
2019/10/03,13:00,0.754,1.073,0.738,1.313,0.966,0.425,0.739,0.698,��쓌,6.9,��
2019/10/03,13:10,0.752,1.068,0.738,1.311,0.967,0.424,0.739,0.697,��쓌,7.9,��
2019/10/03,13:20,0.751,1.070,0.737,1.313,0.965,0.425,0.740,0.695,��쓌,7.4,��
2019/10/03,13:30,0.751,1.066,0.736,1.311,0.966,0.425,0.740,0.694,��쓌,7.6,�L
2019/10/03,13:40,0.751,1.069,0.737,1.314,0.967,0.425,0.739,0.696,��쓌,8.9,�L
2019/10/03,13:50,0.754,1.066,0.737,1.314,0.966,0.426,0.740,0.697,��쓌,8.9,�L
2019/10/03,14:00,0.751,1.069,0.735,1.313,0.967,0.425,0.739,0.695,��쓌,8.1,�L
2019/10/03,14:10,0.748,1.068,0.735,1.311,0.965,0.425,0.742,0.696,��쓌,8.8,�L
2019/10/03,14:20,0.752,1.069,0.735,1.311,0.965,0.425,0.740,0.695,��,8.7,��
2019/10/03,14:30,0.751,1.069,0.738,1.312,0.968,0.425,0.738,0.699,��,6.8,��
2019/10/03,14:40,0.753,1.072,0.737,1.313,0.968,0.426,0.739,0.697,��쓌,9.4,��
2019/10/03,14:50,0.750,1.070,0.739,1.312,0.968,0.425,0.739,0.695,��,8.0,��
2019/10/03,15:00,0.752,1.072,0.738,1.312,0.967,0.423,0.739,0.697,��쓌,9.1,��
2019/10/03,15:10,0.752,1.069,0.737,1.315,0.967,0.424,0.739,0.696,��,7.6,��
2019/10/03,15:20,0.751,1.069,0.736,1.313,0.967,0.426,0.740,0.697,��쓌,9.7,��
2019/10/03,15:30,0.754,1.071,0.738,1.314,0.968,0.425,0.738,0.698,��쓌,7.6,��
2019/10/03,15:40,0.754,1.070,0.735,1.313,0.966,0.425,0.738,0.695,��,8.4,��
2019/10/03,15:50,0.752,1.073,0.737,1.315,0.968,0.425,0.739,0.696,��쓌,8.3,��
2019/10/03,16:00,0.751,1.072,0.735,1.313,0.967,0.425,0.738,0.697,��쓌,9.1,��
2019/10/03,16:10,0.750,1.076,0.736,1.313,0.967,0.426,0.738,0.699,��쓌,7.9,��
2019/10/03,16:20,0.752,1.073,0.740,1.314,0.967,0.426,0.739,0.697,��쓌,9.4,��
2019/10/03,16:30,0.752,1.075,0.738,1.313,0.967,0.426,0.740,0.697,��,7.2,�L
2019/10/03,16:40,0.752,1.076,0.740,1.316,0.967,0.425,0.738,0.697,��쓌,6.9,�L
2019/10/03,16:50,0.751,1.073,0.738,1.312,0.968,0.425,0.738,0.697,��,7.2,�L
2019/10/03,17:00,0.752,1.075,0.740,1.313,0.968,0.426,0.738,0.696,��,7.0,��
2019/10/03,17:10,0.752,1.074,0.739,1.312,0.965,0.424,0.739,0.698,��,6.8,�L
2019/10/03,17:20,0.750,1.076,0.739,1.312,0.968,0.425,0.740,0.698,��,6.2,�L
2019/10/03,17:30,0.752,1.076,0.740,1.315,0.965,0.426,0.739,0.699,��,7.4,��
2019/10/03,17:40,0.751,1.076,0.740,1.313,0.970,0.425,0.738,0.698,��쓌,8.5,��
2019/10/03,17:50,0.751,1.072,0.740,1.315,0.969,0.427,0.741,0.701,��쓌,8.6,��
2019/10/03,18:00,0.751,1.077,0.738,1.313,0.967,0.426,0.740,0.698,��,7.5,��
2019/10/03,18:10,0.753,1.075,0.741,1.313,0.967,0.426,0.741,0.702,��쓌,6.9,��
2019/10/03,18:20,0.751,1.075,0.739,1.315,0.968,0.426,0.742,0.701,��,7.4,��
2019/10/03,18:30,0.752,1.077,0.741,1.315,0.967,0.427,0.741,0.699,��,7.9,��
2019/10/03,18:40,0.753,1.074,0.740,1.316,0.967,0.427,0.742,0.699,��,8.2,��
2019/10/03,18:50,0.753,1.075,0.740,1.316,0.967,0.427,0.740,0.699,��,7.7,��
2019/10/03,19:00,0.751,1.078,0.739,1.315,0.968,0.426,0.742,0.699,��,8.0,��
2019/10/03,19:10,0.751,1.076,0.739,1.314,0.967,0.426,0.741,0.699,��쓌,7.9,��
2019/10/03,19:20,0.753,1.077,0.741,1.315,0.968,0.427,0.741,0.700,��쓌,7.7,�L
2019/10/03,19:30,0.751,1.075,0.741,1.314,0.968,0.426,0.738,0.700,��쓌,7.8,�L
2019/10/03,19:40,0.750,1.075,0.740,1.313,0.966,0.426,0.738,0.700,��,8.7,�L
2019/10/03,19:50,0.752,1.075,0.739,1.314,0.965,0.427,0.741,0.698,��쓌,8.4,��
2019/10/03,20:00,0.753,1.075,0.742,1.314,0.966,0.426,0.742,0.699,��쓌,8.8,��
2019/10/03,20:10,0.752,1.077,0.740,1.315,0.967,0.426,0.741,0.700,��쓌,10.3,��
2019/10/03,20:20,0.751,1.074,0.741,1.317,0.967,0.426,0.742,0.698,��쓌,9.3,��
2019/10/03,20:30,0.753,1.076,0.740,1.316,0.967,0.424,0.742,0.699,��쓌,7.8,��
2019/10/03,20:40,0.751,1.075,0.740,1.314,0.967,0.427,0.741,0.699,��,6.8,��
2019/10/03,20:50,0.750,1.073,0.739,1.315,0.966,0.427,0.740,0.700,��,7.2,��
2019/10/03,21:00,0.751,1.074,0.740,1.316,0.967,0.425,0.740,0.700,��,8.1,�L
2019/10/03,21:10,0.753,1.074,0.740,1.315,0.967,0.425,0.742,0.699,��,7.4,�L
2019/10/03,21:20,0.752,1.075,0.740,1.315,0.966,0.426,0.741,0.700,��,8.3,�L
2019/10/03,21:30,0.752,1.075,0.740,1.316,0.967,0.427,0.740,0.700,��,7.8,��
2019/10/03,21:40,0.753,1.074,0.739,1.315,0.966,0.427,0.741,0.700,��,7.6,��
2019/10/03,21:50,0.752,1.076,0.741,1.315,0.969,0.427,0.741,0.700,��,8.1,��
2019/10/03,22:00,0.753,1.075,0.741,1.313,0.970,0.426,0.741,0.700,��,7.9,�L
2019/10/03,22:10,0.752,1.075,0.740,1.314,0.969,0.428,0.740,0.698,��,8.9,�L
2019/10/03,22:20,0.751,1.075,0.740,1.314,0.972,0.425,0.741,0.699,��,8.5,�L
2019/10/03,22:30,0.751,1.076,0.742,1.316,0.970,0.425,0.741,0.699,��,7.6,�L
2019/10/03,22:40,0.752,1.075,0.739,1.316,0.969,0.425,0.739,0.698,��,9.9,�L
2019/10/03,22:50,0.753,1.073,0.741,1.316,0.965,0.426,0.741,0.699,��,11.1,�L
2019/10/03,23:00,0.752,1.073,0.741,1.316,0.969,0.428,0.741,0.699,��,8.7,�L
2019/10/03,23:10,0.752,1.072,0.740,1.315,0.967,0.427,0.740,0.699,��,10.0,�L
2019/10/03,23:20,0.752,1.073,0.741,1.314,0.970,0.426,0.741,0.700,��,9.2,��
2019/10/03,23:30,0.753,1.076,0.743,1.313,0.968,0.427,0.740,0.698,��,10.7,�L
2019/10/03,23:40,0.752,1.075,0.743,1.316,0.969,0.427,0.740,0.699,��,10.5,�L
2019/10/03,23:50,0.753,1.075,0.741,1.316,0.969,0.427,0.740,0.699,��,9.7,�L
